Date,TemperatureHighF,TemperatureAvgF,TemperatureLowF,DewpointHighF,DewpointAvgF,DewpointLowF,HumidityHigh,HumidityAvg,HumidityLow,PressureMaxIn,PressureMinIn,WindSpeedMaxMPH,WindSpeedAvgMPH,GustSpeedMaxMPH,PrecipitationSumIn
2012-1-1,35,33,29,33,31,26,97,92,86,29.82,29.38,27,8,0,0.20
2012-1-2,29,21,12,26,16,7,93,82,69,30.21,29.64,22,8,0,0.00
2012-1-3,22,13,3,18,8,-1,88,80,68,30.36,29.98,24,8,0,0.00
2012-1-4,31,29,23,29,25,18,91,84,75,29.96,29.79,28,12,0,0.00
2012-1-5,34,32,30,31,28,26,91,85,80,29.90,29.46,15,3,0,0.02
2012-1-6,40,38,34,37,35,31,96,91,85,29.62,29.44,17,8,0,0.03
2012-1-7,36,30,24,33,26,19,91,85,78,30.18,29.60,19,5,0,0.00
2012-1-8,34,29,24,31,25,19,90,85,81,30.25,30.16,25,8,0,0.00
2012-1-9,38,35,31,35,32,27,94,89,83,30.15,29.68,35,16,0,0.01
2012-1-10,38,35,33,33,31,30,94,86,73,29.96,29.75,10,3,0,0.00
2012-1-11,41,37,32,38,35,30,97,91,80,29.75,29.55,10,3,0,0.00
2012-1-12,38,34,24,37,33,22,97,94,87,29.55,29.36,15,4,0,0.08
2012-1-13,24,14,6,23,10,-1,96,85,70,30.01,29.38,24,8,0,0.00
2012-1-14,17,11,4,13,6,-2,91,81,72,30.28,30.01,11,4,0,0.00
2012-1-15,26,21,16,23,17,11,88,84,77,30.37,30.18,29,11,0,0.00
2012-1-16,32,27,23,30,24,18,96,88,79,30.16,29.74,21,7,0,0.00
2012-1-17,31,25,15,30,22,11,96,89,82,30.00,29.64,16,5,0,0.00
2012-1-18,23,18,9,18,14,6,87,82,76,30.17,29.75,28,11,0,0.00
2012-1-19,24,16,10,22,11,4,95,83,70,30.07,29.53,32,15,0,0.00
2012-1-20,16,13,10,12,6,-3,87,75,57,30.20,30.07,23,9,0,0.00
2012-1-21,21,16,8,15,10,-5,86,75,54,30.28,30.16,13,5,0,0.00
2012-1-22,33,25,17,29,20,12,95,82,76,30.24,29.77,13,5,0,0.00
2012-1-23,44,36,30,43,35,29,98,96,89,29.75,29.23,29,11,0,0.68
2012-1-24,32,25,23,29,21,18,91,84,78,30.28,29.54,24,10,0,0.00
2012-1-25,32,28,24,29,25,21,92,88,84,30.36,30.13,12,2,0,0.00
2012-1-26,33,29,25,32,27,23,97,92,88,30.13,29.61,12,3,0,0.00
2012-1-27,35,32,31,32,29,26,98,89,71,29.82,29.56,21,7,0,0.00
2012-1-28,33,29,26,31,26,18,98,87,71,29.80,29.59,30,14,0,0.05
2012-1-29,26,23,20,20,17,13,85,78,66,30.12,29.80,21,10,0,0.00
2012-1-30,26,21,14,24,18,10,92,86,69,30.14,29.86,20,4,0,0.00
2012-1-31,38,32,27,37,29,24,97,92,88,29.86,29.61,22,3,0,0.02
2012-2-1,34,33,31,33,29,26,96,85,78,30.16,29.66,21,6,0,0.00
2012-2-2,34,32,30,32,28,26,96,87,81,30.37,30.16,5,1,0,0.00
2012-2-3,35,33,30,33,31,26,95,90,81,30.45,30.37,10,2,0,0.01
2012-2-4,34,31,25,32,28,24,95,91,86,30.42,30.17,15,2,0,0.00
2012-2-5,34,32,31,32,28,26,92,87,81,30.27,30.02,28,9,0,0.00
2012-2-6,34,34,32,32,30,25,93,88,77,30.12,29.92,25,11,0,0.00
2012-2-7,32,22,18,25,12,0,83,67,36,30.45,30.14,17,4,0,0.00
2012-2-8,31,26,21,25,21,16,85,79,73,30.38,30.05,26,16,0,0.00
2012-2-9,33,30,26,27,23,20,82,77,69,30.05,29.86,37,16,0,0.00
2012-2-10,32,16,7,26,10,-2,90,76,56,30.19,29.84,22,8,0,0.00
2012-2-11,23,13,2,20,8,-4,92,80,70,30.25,30.05,30,11,0,0.00
2012-2-12,31,26,21,25,20,16,89,78,58,30.06,29.94,31,13,0,0.00
2012-2-13,33,29,25,29,21,16,88,72,58,29.96,29.82,30,17,0,0.00
2012-2-14,32,31,30,31,30,29,97,95,90,29.91,29.77,16,6,0,0.04
2012-2-15,35,32,29,33,31,28,96,95,90,30.06,29.91,11,3,0,0.01
2012-2-16,36,34,32,33,32,29,98,93,85,30.03,29.84,14,4,0,0.02
2012-2-17,34,32,27,30,27,25,92,84,74,30.00,29.92,24,10,0,0.00
2012-2-18,27,25,22,25,20,16,94,82,68,30.26,29.97,15,3,0,0.03
2012-2-19,34,27,24,24,22,17,92,81,68,30.23,30.15,13,4,0,0.00
2012-2-20,39,29,20,32,26,18,95,87,74,30.30,30.06,10,2,0,0.01
2012-2-21,38,32,28,34,27,24,95,82,73,30.05,29.41,30,6,0,0.02
2012-2-22,38,33,31,34,30,28,96,89,82,29.41,29.31,31,15,0,0.00
2012-2-23,33,31,30,30,28,25,92,89,81,29.68,29.36,11,4,0,0.00
2012-2-24,30,29,27,28,25,23,100,86,80,29.67,29.50,12,4,0,0.02
2012-2-25,29,24,20,25,15,9,91,71,45,30.28,29.67,14,4,0,0.01
2012-2-26,32,26,16,26,20,12,92,79,68,30.35,29.92,14,5,0,0.00
2012-2-27,36,31,24,31,26,19,92,82,75,30.42,29.82,31,14,0,0.01
2012-2-28,31,28,23,29,24,19,92,85,84,30.45,30.21,7,2,0,0.00
2012-2-29,34,32,30,31,29,26,98,88,80,30.21,29.55,29,13,0,0.00
2012-3-1,31,28,26,30,27,26,97,96,94,29.83,29.58,15,4,0,0.03
2012-3-2,35,33,31,35,33,31,99,99,98,29.83,29.17,16,5,0,0.01
2012-3-3,32,28,20,32,27,19,99,97,94,29.57,29.09,10,1,0,0.00
2012-3-5,12,12,12,7,7,7,79,79,79,30.28,30.28,2,2,0,0.00
2012-3-8,40,31,26,39,28,22,98,88,74,30.02,29.57,20,7,0,0.18
2012-3-9,30,25,22,28,19,11,95,78,59,30.45,29.95,17,8,0,0.00
2012-3-10,43,37,33,29,25,18,79,61,51,30.16,30.03,10,5,0,0.00
2012-3-11,45,42,41,36,35,34,78,74,70,30.10,30.07,15,9,0,0.00
2012-3-12,44,39,37,44,38,35,99,96,86,29.96,29.64,15,6,0,0.34
2012-3-13,41,38,37,39,36,32,98,89,78,30.03,29.66,27,8,0,0.00
2012-3-14,44,38,31,37,33,28,91,83,69,30.07,29.88,18,6,0,0.00
2012-3-15,52,42,36,42,37,33,92,82,59,30.04,29.89,14,2,0,0.00
2012-3-16,46,39,33,40,32,27,91,75,54,30.13,30.03,11,3,0,0.00
2012-3-18,41,41,40,40,40,39,97,96,96,30.00,29.98,9,8,0,0.00
2012-3-19,50,43,38,45,41,37,98,93,83,30.05,29.97,15,7,0,0.00
2012-3-22,52,49,46,50,48,44,96,94,92,30.19,30.15,10,5,0,0.18
2012-3-23,44,41,40,42,40,39,97,96,94,30.09,30.03,19,8,0,0.28
2012-3-26,36,30,27,20,16,13,61,56,50,30.52,30.48,5,2,0,0.00
2012-3-27,41,38,36,35,30,21,85,72,53,30.06,29.64,16,7,0,0.01
2012-4-12,43,39,35,36,35,33,91,84,69,30.26,30.20,8,4,0,0.01
2012-4-16,58,55,52,55,50,46,95,81,69,29.42,29.36,33,18,0,0.07
2012-4-17,36,31,25,30,26,19,86,80,74,30.39,30.32,15,5,0,0.00
2012-4-18,38,31,28,33,28,26,92,89,83,30.36,30.21,10,2,0,0.00
2012-4-23,54,50,48,21,18,16,32,28,25,29.95,29.79,25,9,0,0.00
2012-4-26,44,39,35,39,31,25,92,74,58,30.08,29.74,15,4,0,0.12
2012-4-29,55,50,47,30,24,19,50,37,30,30.24,30.21,5,2,0,0.00
2012-4-30,49,48,47,25,23,19,43,39,32,30.20,30.15,8,3,0,0.00
2012-5-2,44,43,42,43,42,42,98,98,97,29.90,29.79,13,5,0,0.11
2012-5-3,50,44,43,50,44,43,100,99,99,29.91,29.74,12,7,0,0.31
2012-5-5,54,50,46,34,28,21,61,45,28,30.19,30.14,13,5,0,0.00
2012-5-6,51,50,48,38,36,33,66,59,52,30.15,30.13,11,5,0,0.01
2012-5-14,61,56,52,45,44,43,74,64,52,29.92,29.89,8,2,0,0.00
2012-5-15,51,51,51,44,44,44,78,78,77,29.90,29.90,0,0,0,0.00
2012-5-16,56,52,47,43,36,30,85,57,38,30.06,30.03,23,7,0,0.00
2012-5-17,57,53,50,42,39,35,73,60,50,30.16,30.05,10,3,0,0.00
2012-5-18,74,56,50,49,44,40,84,66,35,30.07,29.94,12,2,0,0.00
2012-5-19,70,56,48,49,46,44,89,72,47,30.04,29.97,12,4,0,0.00
2012-5-20,77,64,54,57,52,47,78,66,49,30.00,29.81,13,4,0,0.00
2012-5-21,67,56,49,59,49,42,100,81,56,30.08,29.83,28,4,0,0.19
2012-5-22,70,53,46,49,44,39,86,71,34,30.09,29.91,13,2,0,0.00
2012-5-23,66,57,50,52,47,41,90,71,51,29.92,29.75,13,2,0,0.00
2012-5-24,77,64,54,61,54,51,92,71,44,29.79,29.56,12,4,0,0.00
2012-5-25,73,60,54,62,52,46,94,78,65,30.08,29.53,24,12,0,0.00
2012-5-26,65,56,46,51,47,43,90,72,51,30.24,30.09,9,2,0,0.00
2012-5-27,63,54,51,53,49,43,97,84,49,30.13,29.82,13,6,0,0.10
2012-5-28,77,58,51,61,55,50,98,91,57,29.82,29.57,11,5,0,0.34
2012-5-29,64,57,53,61,54,50,100,91,66,29.71,29.56,16,5,0,0.01
2012-5-30,54,52,51,52,50,49,96,93,89,29.73,29.71,9,2,0,0.01
2012-5-31,58,53,51,43,42,40,74,67,56,29.99,29.96,7,2,0,0.00
2012-6-1,51,11,50,42,-70,-100,72,14,58,30.00,29.50,10,-779,0,0.00
2012-6-2,-200,0,200,-100,-100,-100,0,0,100,29.51,29.34,0,-999,0,0.00
2012-6-3,67,30,54,54,-26,-100,92,36,56,29.80,29.51,16,-507,0,0.00
2012-6-4,63,27,56,57,-31,-100,90,36,73,29.98,29.79,7,-551,0,0.03
2012-6-5,67,30,57,56,-27,-100,89,36,57,30.08,29.98,10,-525,0,0.00
2012-6-6,74,32,56,57,-25,-100,89,34,47,30.04,29.97,11,-509,0,0.00
2012-6-7,66,29,57,56,-29,-100,87,33,64,30.04,29.96,12,-540,0,0.00
2012-6-8,68,37,57,61,-5,-100,98,52,72,29.95,29.77,14,-397,0,0.25
2012-6-9,75,65,58,64,61,57,99,87,65,29.79,29.72,9,2,0,0.09
2012-6-10,77,68,60,62,60,58,95,77,58,29.90,29.79,11,2,0,0.00
2012-6-11,77,69,64,66,63,60,95,80,61,29.84,29.65,17,5,0,0.38
2012-6-12,67,59,49,66,49,38,95,71,51,30.11,29.64,14,4,0,0.00
2012-6-13,62,54,43,51,46,38,90,75,55,30.22,30.11,16,4,0,0.00
2012-6-14,63,58,53,55,50,44,86,75,58,30.22,30.04,14,4,0,0.00
2012-6-15,64,61,58,59,55,51,93,81,63,30.10,30.02,16,5,0,0.00
2012-6-16,75,64,59,66,60,57,95,85,73,30.07,29.77,17,5,0,0.08
2012-6-17,68,64,60,65,60,55,98,88,70,29.78,29.68,20,7,0,0.23
2012-6-18,69,63,60,61,58,56,91,83,75,29.72,29.58,16,3,0,0.04
2012-6-19,78,70,66,71,67,65,96,88,79,29.88,29.82,5,1,0,0.16
2012-6-21,67,64,59,63,61,59,98,92,84,29.84,29.74,16,5,0,0.12
2012-6-22,67,61,56,62,58,53,99,88,78,29.95,29.83,12,3,0,0.01
2012-6-23,71,64,57,61,58,55,98,83,61,30.02,29.95,11,3,0,0.00
2012-6-24,74,64,56,64,58,48,96,81,52,29.97,29.88,16,4,0,0.28
2012-6-25,72,63,53,53,49,44,92,62,40,30.10,29.98,13,3,0,0.00
2012-6-26,69,62,57,59,52,44,81,71,58,30.02,29.89,16,4,0,0.00
2012-6-27,72,64,58,61,57,53,91,78,58,29.91,29.73,8,1,0,0.00
2012-6-28,75,67,63,69,64,61,95,89,76,29.72,29.64,14,3,0,0.00
2012-6-29,72,67,66,66,64,62,97,87,73,29.71,29.63,13,5,0,0.00
2012-6-30,80,69,65,64,61,56,92,75,50,29.80,29.63,10,2,0,0.00
2012-7-1,76,68,61,66,60,56,86,75,60,29.93,29.82,11,2,0,0.00
2012-7-2,82,71,62,68,63,58,95,75,44,29.99,29.83,6,1,0,0.00
2012-7-3,75,71,69,68,67,64,93,86,72,29.82,29.69,30,8,0,0.00
2012-7-4,86,74,67,71,66,60,96,80,51,29.85,29.68,6,1,0,0.00
2012-7-5,76,72,68,72,69,62,98,88,66,29.86,29.71,7,1,0,0.20
2012-7-6,88,74,67,70,66,59,99,78,43,29.93,29.85,14,2,0,0.01
2012-7-7,81,69,62,69,63,60,97,83,51,29.99,29.89,21,4,0,0.59
2012-7-8,74,68,61,67,61,58,94,78,66,30.06,29.97,9,3,0,0.00
2012-7-9,76,69,62,61,58,54,90,69,47,30.04,29.99,11,4,0,0.00
2012-7-10,76,68,61,65,59,56,93,76,54,30.13,30.04,10,3,0,0.00
2012-7-11,75,69,59,68,63,56,95,79,62,30.14,30.04,14,5,0,0.00
2012-7-12,80,73,65,67,63,59,93,71,54,30.09,30.02,12,5,0,0.00
2012-7-13,83,73,64,70,65,58,94,75,50,30.06,29.97,12,2,0,0.00
2012-7-14,82,75,70,73,69,63,94,82,64,29.99,29.91,13,1,0,0.39
2012-7-15,78,73,68,73,70,66,96,91,86,29.95,29.90,11,3,0,0.77
2012-7-16,84,76,70,74,71,69,99,85,68,29.95,29.58,24,3,0,0.00
2012-7-17,83,75,67,73,69,62,93,82,66,29.85,29.57,26,7,0,0.00
2012-7-18,75,70,64,65,62,56,94,76,59,29.98,29.84,11,4,0,0.00
2012-7-19,71,68,61,65,61,57,87,79,67,30.04,29.93,15,5,0,0.00
2012-7-20,76,69,61,65,61,58,92,76,56,30.11,30.01,10,2,0,0.00
2012-7-21,75,71,65,72,65,59,94,82,67,30.01,29.88,21,9,0,0.00
2012-7-22,79,71,61,70,64,58,90,78,64,30.00,29.89,7,1,0,0.00
2012-7-23,87,75,71,74,69,64,93,81,51,29.87,29.69,23,6,0,0.00
2012-7-24,77,70,63,64,59,53,92,70,47,29.97,29.81,18,4,0,0.00
2012-7-25,70,65,60,65,60,51,96,84,68,29.94,29.52,24,7,0,0.62
2012-7-26,70,67,63,66,64,62,98,91,81,29.75,29.51,7,1,0,0.00
2012-7-27,71,67,63,64,61,59,95,82,71,29.97,29.75,13,4,0,0.00
2012-7-28,75,68,61,67,63,59,96,84,65,30.08,29.97,10,2,0,0.00
2012-7-29,79,70,62,67,63,53,98,81,43,30.05,29.93,12,3,0,0.00
2012-7-30,76,71,65,71,67,60,99,87,75,29.92,29.74,19,8,0,1.41
2012-7-31,77,71,65,69,66,60,96,85,68,29.89,29.75,13,4,0,0.02
2012-8-1,75,68,58,70,63,56,96,84,71,29.89,29.75,17,5,0,0.01
2012-8-2,78,73,66,71,68,63,92,85,70,29.85,29.66,23,10,0,0.00
2012-8-3,71,67,63,67,64,61,96,89,83,29.98,29.85,14,5,0,0.02
2012-8-4,82,73,67,73,69,64,94,87,72,29.96,29.72,10,4,0,0.00
2012-8-5,74,69,61,72,60,49,96,75,51,30.03,29.68,24,8,0,0.05
2012-8-6,71,67,58,64,59,50,85,76,65,30.05,29.85,24,11,0,0.00
2012-8-7,80,71,63,69,64,56,95,80,49,29.93,29.80,18,8,0,0.00
2012-8-8,74,67,59,61,58,56,93,74,61,30.00,29.92,10,3,0,0.00
2012-8-9,70,66,62,62,59,53,93,79,60,29.99,29.93,21,4,0,0.04
2012-8-10,73,65,59,57,53,50,77,66,52,29.95,29.84,21,7,0,0.00
2012-8-11,76,67,63,62,56,53,83,68,52,29.87,29.81,13,3,0,0.00
2012-8-12,71,66,60,65,61,56,90,82,70,29.91,29.86,18,6,0,0.00
2012-8-13,72,67,62,66,63,59,96,88,68,29.91,29.85,10,3,0,0.00
2012-8-14,74,67,63,67,64,59,98,88,60,29.87,29.81,16,4,0,0.00
2012-8-15,74,67,60,63,60,56,94,80,61,29.90,29.83,12,3,0,0.00
2012-8-16,70,66,62,67,64,58,97,90,83,29.84,29.57,17,5,0,0.50
2012-8-17,68,61,56,58,51,42,93,71,42,29.91,29.67,18,6,0,0.01
2012-8-18,68,64,60,60,57,53,87,77,66,29.91,29.85,24,9,0,0.00
2012-8-19,67,60,53,56,49,44,91,68,44,29.93,29.88,16,3,0,0.00
2012-8-20,67,62,53,60,54,45,90,74,64,29.92,29.86,21,10,0,0.00
2012-8-21,70,63,55,64,59,53,98,88,75,29.99,29.91,15,3,0,0.00
2012-8-22,72,67,60,64,61,57,94,80,63,29.99,29.94,24,11,0,0.00
2012-8-23,74,68,60,64,61,56,86,77,64,30.03,29.97,11,3,0,0.00
2012-8-24,77,70,66,67,65,62,94,83,66,29.99,29.91,8,3,0,0.02
2012-8-25,86,74,69,68,65,63,92,75,50,30.00,29.93,10,3,0,0.00
2012-8-26,77,71,68,68,66,64,98,86,66,29.98,29.91,6,1,0,0.17
2012-8-27,76,69,63,68,65,58,99,87,58,29.99,29.88,16,5,0,0.00
2012-8-28,71,64,56,60,56,50,94,75,60,30.11,30.00,10,2,0,0.00
2012-8-29,70,62,53,64,56,49,91,81,59,30.08,29.92,11,2,0,0.00
2012-8-30,81,72,64,68,65,61,93,78,57,29.93,29.71,27,12,0,0.00
2012-8-31,82,72,65,68,60,51,95,70,34,30.05,29.73,23,6,0,0.00
2012-9-1,77,69,62,63,58,55,86,71,52,30.15,30.05,13,4,0,0.00
2012-9-2,72,66,59,67,62,57,96,85,72,30.09,29.97,14,4,0,0.00
2012-9-3,75,67,61,66,62,58,96,82,66,29.98,29.84,19,2,0,0.32
2012-9-4,76,69,65,70,67,65,99,93,81,29.88,29.78,9,1,0,0.23
2012-9-5,77,69,63,69,65,59,97,89,72,29.81,29.66,20,3,0,0.02
2012-9-6,71,67,63,64,62,59,94,82,68,29.84,29.75,17,8,0,0.00
2012-9-7,67,62,57,62,59,56,97,91,79,29.84,29.73,14,3,0,0.43
2012-9-8,63,58,54,56,51,46,95,80,57,29.78,29.64,7,2,0,0.11
2012-9-9,68,59,51,51,48,41,91,67,42,30.07,29.78,11,2,0,0.01
2012-9-10,68,60,51,59,54,49,94,80,67,30.15,30.01,14,3,0,0.00
2012-9-11,75,68,62,63,60,56,85,74,61,30.01,29.91,27,11,0,0.01
2012-9-12,73,69,59,66,60,48,89,72,52,30.12,29.92,31,13,0,0.00
2012-9-13,63,58,56,55,51,48,89,78,62,30.23,30.11,7,1,0,0.01
2012-9-14,65,57,52,56,52,46,97,84,52,30.24,30.17,18,2,0,0.06
2012-9-15,61,55,47,50,46,40,95,73,52,30.31,30.09,10,2,0,0.00
2012-9-16,71,63,54,60,55,49,92,76,53,30.09,29.84,29,13,0,0.00
2012-9-17,65,62,59,60,57,54,96,83,68,29.84,29.69,24,7,0,0.23
2012-9-18,54,49,44,47,42,37,91,77,64,29.88,29.71,12,4,0,0.36
2012-9-19,58,49,38,50,42,36,92,77,56,29.97,29.69,28,10,0,0.03
2012-9-20,58,55,52,53,51,47,94,85,75,29.77,29.62,34,16,0,0.08
2012-9-21,57,52,44,50,47,43,95,85,67,29.78,29.70,30,9,0,0.15
2012-9-22,56,49,45,48,43,39,92,81,55,29.95,29.67,15,4,0,0.04
2012-9-23,52,47,42,43,41,39,93,81,69,30.11,29.95,23,4,0,0.02
2012-9-24,61,54,47,53,44,40,90,69,54,30.09,29.61,42,22,0,0.00
2012-9-25,56,50,44,49,45,43,94,83,65,29.89,29.72,10,2,0,0.00
2012-9-26,57,50,45,48,44,41,89,80,63,30.18,29.88,14,2,0,0.00
2012-9-27,57,49,44,47,43,40,90,78,55,30.29,30.18,9,2,0,0.00
2012-9-28,60,52,44,55,49,40,97,89,83,30.18,30.04,12,3,0,0.00
2012-9-29,60,54,48,53,49,46,96,83,70,30.05,30.00,7,2,0,0.00
2012-9-30,59,53,47,48,45,42,89,77,59,30.05,29.93,13,3,0,0.00
2012-10-1,60,53,45,54,49,43,97,89,79,29.93,29.81,12,2,0,0.00
2012-10-2,62,54,49,54,51,48,98,91,75,29.96,29.82,7,0,0,0.00
2012-10-3,60,55,50,57,54,49,99,95,85,30.00,29.95,9,2,0,0.01
2012-10-4,65,59,55,60,56,51,99,92,74,29.96,29.78,29,4,0,0.04
2012-10-5,58,50,46,49,41,34,80,73,62,29.88,29.81,33,19,0,0.01
2012-10-6,48,44,38,40,35,31,87,74,56,30.07,29.76,25,8,0,0.00
2012-10-7,45,40,34,40,36,31,93,84,70,30.09,30.00,23,7,0,0.00
2012-10-8,55,49,43,42,38,35,85,67,51,30.01,29.89,29,18,0,0.00
2012-10-9,52,51,45,49,44,38,95,79,58,29.89,29.63,34,16,0,0.19
2012-10-10,46,43,41,41,37,30,88,79,65,30.00,29.66,20,9,0,0.01
2012-10-11,47,42,38,41,36,30,95,80,63,30.12,29.81,26,10,0,0.40
2012-10-12,46,42,33,37,33,31,94,72,57,30.41,30.17,23,9,0,0.04
2012-10-13,49,44,41,48,39,31,98,84,64,30.29,29.74,25,9,0,0.49
2012-10-14,50,48,43,49,47,42,100,98,96,29.75,29.29,22,7,0,1.54
2012-10-15,45,43,40,42,39,35,97,88,76,29.89,29.33,16,4,0,0.40
2012-10-16,51,45,34,46,41,33,96,86,78,29.90,29.63,15,4,0,0.04
2012-10-17,62,53,48,56,48,42,93,84,69,29.63,29.41,16,6,0,0.02
2012-10-18,59,53,48,55,50,43,98,89,81,29.60,29.27,24,7,0,0.08
2012-10-19,50,48,46,49,45,43,97,91,81,29.62,29.57,19,4,0,0.24
2012-10-20,54,49,45,50,46,44,96,92,77,29.78,29.58,12,3,0,0.13
2012-10-21,53,50,46,50,48,45,98,93,85,30.01,29.80,16,5,0,0.00
2012-10-22,54,50,45,51,47,44,97,91,77,30.03,29.98,10,2,0,0.00
2012-10-23,53,51,50,50,48,47,95,90,84,30.03,29.98,18,7,0,0.00
2012-10-24,54,50,49,54,50,48,100,98,92,30.01,29.85,14,6,0,0.00
2012-10-25,70,61,51,62,57,50,100,88,68,29.84,29.54,28,6,0,0.09
2012-10-26,50,44,41,49,38,31,97,78,65,30.25,29.68,23,10,0,0.31
2012-10-27,45,40,35,33,29,26,82,67,52,30.29,30.23,13,2,0,0.00
2012-10-28,46,40,36,33,30,27,82,67,51,30.34,30.27,13,3,0,0.00
2012-10-29,43,39,36,29,25,21,70,58,46,30.28,30.05,23,8,0,0.00
2012-10-30,37,36,34,35,31,24,94,82,61,30.04,29.67,28,12,0,0.42
2012-10-31,41,38,35,37,34,32,91,87,79,29.67,29.60,16,5,0,0.13
2012-11-1,41,38,34,37,35,32,100,89,75,29.78,29.62,15,5,0,0.03
2012-11-2,36,34,32,34,32,28,97,93,80,30.12,29.78,11,1,0,0.28
2012-11-3,35,32,30,29,27,26,89,82,77,30.22,30.12,10,2,0,0.03
2012-11-4,38,32,28,30,27,24,88,81,72,30.25,30.19,13,2,0,0.00
2012-11-5,34,31,28,26,24,22,84,75,68,30.29,30.16,13,3,0,0.00
2012-11-6,40,37,33,31,29,25,80,73,65,30.15,29.97,17,7,0,0.00
2012-11-7,42,40,38,35,32,30,79,74,67,30.15,30.02,15,6,0,0.00
2012-11-8,46,42,39,43,37,33,87,81,77,30.15,30.01,24,9,0,0.00
2012-11-9,47,45,43,43,41,39,90,86,80,30.14,30.01,20,4,0,0.00
2012-11-10,48,43,41,47,41,37,100,92,85,30.17,29.86,22,10,0,0.94
2012-11-11,63,54,47,54,50,46,98,86,71,29.88,29.66,26,8,0,0.17
2012-11-12,51,39,29,50,36,22,97,86,67,30.05,29.69,38,21,0,0.03
2012-11-13,38,35,32,32,29,23,88,78,68,30.45,30.06,25,14,0,0.05
2012-11-14,40,37,34,33,31,28,86,78,73,30.49,30.36,28,15,0,0.01
2012-11-15,48,42,36,43,35,29,88,77,67,30.36,30.23,21,10,0,0.00
2012-11-16,42,37,31,39,28,20,88,71,42,30.49,30.29,7,2,0,0.00
2012-11-17,42,38,34,40,36,28,98,93,69,30.54,30.49,16,4,0,0.00
2012-11-18,52,44,38,43,38,34,98,80,59,30.49,30.35,12,4,0,0.00
2012-11-19,48,44,39,43,39,36,90,84,73,30.35,30.10,10,2,0,0.00
2012-11-20,47,46,44,45,42,37,96,86,73,30.12,30.06,4,0,0,0.00
2012-11-21,55,47,44,46,44,41,97,89,71,30.14,29.93,10,2,0,0.00
2012-11-22,60,54,45,47,43,40,85,69,50,29.93,29.50,22,9,0,0.00
2012-11-23,54,37,28,49,34,25,96,88,77,29.91,29.42,43,19,0,0.01
2012-11-24,28,27,26,25,21,19,87,78,71,30.07,29.91,16,4,0,0.00
2012-11-25,33,30,27,30,27,21,96,87,78,29.93,29.72,21,8,0,0.00
2012-11-26,31,28,25,25,22,19,87,78,65,30.26,29.91,17,5,0,0.00
2012-11-27,34,31,25,33,26,21,97,82,72,30.26,30.02,33,19,0,0.00
2012-11-28,36,29,26,31,25,19,97,85,73,30.20,30.02,31,10,0,0.00
2012-11-29,38,28,23,32,23,17,89,80,74,30.34,30.07,30,6,0,0.00
2012-11-30,33,27,25,31,24,20,95,87,78,30.39,30.31,21,10,0,0.00
2012-12-1,40,35,32,39,34,30,100,93,89,30.32,29.81,18,8,0,0.16
2012-12-2,45,41,38,45,40,37,99,96,87,30.07,29.76,17,4,0,0.03
2012-12-3,57,44,36,55,42,35,98,95,89,30.08,29.58,21,8,0,0.01
2012-12-4,55,40,29,54,36,21,97,84,66,30.10,29.60,33,15,0,0.07
2012-12-5,31,28,25,27,22,20,90,79,69,30.41,30.11,21,4,0,0.00
2012-12-6,40,34,30,36,29,24,88,80,74,30.27,29.80,23,12,0,0.02
2012-12-7,41,36,32,38,30,25,89,78,69,30.00,29.79,11,2,0,0.00
2012-12-8,33,31,28,29,25,20,90,80,66,30.18,29.95,7,1,0,0.01
2012-12-9,32,28,22,28,24,20,95,85,70,30.25,29.81,21,8,0,0.00
2012-12-10,25,22,16,21,18,13,94,87,79,29.90,29.66,14,4,0,0.00
2012-12-11,33,26,15,30,22,13,97,85,75,29.96,29.86,32,11,0,0.00
2012-12-12,39,29,22,33,24,17,88,81,75,30.22,29.95,24,6,0,0.00
2012-12-13,43,40,35,37,34,30,87,79,72,30.15,29.97,26,12,0,0.00
2012-12-14,35,31,29,32,27,24,90,84,77,30.25,30.04,11,2,0,0.00
2012-12-15,39,36,33,37,34,30,94,89,87,30.22,29.73,19,10,0,0.32
2012-12-16,40,38,37,40,38,37,99,98,98,29.54,29.50,9,2,0,0.18
2012-12-17,40,29,36,40,8,-100,99,75,88,29.65,29.53,19,-201,0,0.00
2012-12-18,36,12,33,34,-53,-100,96,32,88,29.75,29.64,7,-647,0,0.00
2012-12-19,38,11,32,33,-59,-100,92,26,78,30.09,29.75,9,-683,0,0.01
2012-12-20,-200,0,200,-100,-100,-100,0,0,100,30.07,29.30,0,-999,0,0.00
2012-12-21,28,5,27,27,-76,-100,97,18,95,29.90,29.30,17,-807,0,0.00
2012-12-22,29,7,27,25,-69,-100,89,21,83,29.99,29.82,13,-747,0,0.00
2012-12-23,26,7,24,21,-66,-100,84,23,76,29.99,29.79,14,-710,0,0.00
2012-12-24,-200,0,200,-100,-100,-100,0,0,100,30.03,29.94,0,-999,0,0.00
2012-12-25,28,4,26,22,-81,-100,82,12,75,30.41,30.03,5,-845,0,0.00
2012-12-26,24,6,20,18,-69,-100,81,21,76,30.39,30.14,12,-732,0,0.00
2012-12-27,28,8,18,19,-62,-100,75,23,62,30.18,30.12,11,-665,0,0.00
2012-12-28,21,6,16,17,-66,-100,91,24,81,30.15,30.01,4,-709,0,0.00
2012-12-29,25,6,20,20,-68,-100,90,22,79,30.01,29.91,10,-732,0,0.00
2012-12-30,29,4,26,25,-80,-100,83,13,79,30.15,29.96,22,-837,0,0.00
2012-12-31,27,5,23,22,-79,-100,82,13,67,30.02,29.77,23,-818,0,0.00
2013-1-1,24,7,16,18,-61,-100,87,26,66,30.10,29.97,20,-656,0,0.00